{"data":{"norad_id":61248,"intl_designator":"2024-175F","name":"STARLINK-11317 [DTC]","alt_names":[],"object_type":"PAYLOAD","status":"ACTIVE","operator":null,"country":"US","launch_date":"2024-09-25","launch_site_code":"AFWTR","launch_vehicle":null,"mission":null,"orbit_class":"UNKNOWN","rcs_meters":null,"size_class":null,"mass_kg":null,"dimensions":null,"purposes":["comms"],"wikipedia_slug":null,"has_3d_model":false,"image_url":null,"decayed_at":null,"tle_current":{"epoch":"2026-05-25T02:47:07.513152Z","epoch_age_seconds":58404,"freshness":"FRESH","line1":"1 61248U 24175F   26145.11605918  .00002837  00000+0  28268-4 0  9998","line2":"2 61248  53.1595  39.2491 0000989  78.3490 281.7639 15.69706203 95375","mean_motion":15.69706203,"eccentricity":9.89e-5,"inclination_deg":53.1595,"raan_deg":39.2491,"arg_perigee_deg":78.349,"mean_anomaly_deg":281.7639,"bstar":2.8268e-5,"rev_number":9537,"period_min":91.736912120745,"perigee_km":359.07124020275,"apogee_km":360.40399180179,"semimajor_km":6737.8746160023,"source":"CELESTRAK","updated_at":"2026-05-25T13:38:19.364846Z"}}}